Location: Carrières
(48.9495°N, 2.0407°E)
Time: 00:21:01
(UTC+00:00)

Cosmos 1606 Rocket - Pass Details

Date: 26 June 2024
Orbit: 599 x 628 km, 82.5° (Epoch: 15 July)

Event Time Altitude Azimuth Distance (km) Brightness Sun altitude
Rises 00:15:33 0° 356° (N) 2,914 8.7 -17.6°
Reaches altitude 10° 00:17:58 10° 5° (N) 1,998 7.5 -17.5°
Maximum altitude 00:22:03 36° 73° (ENE) 986 4.8 -17.4°
Enters shadow 00:24:52 17° 132° (SE) 1,547 5.3 -17.4°
